Orbital Elements at Epoch 2459200.5 (2020-Dec-17.0) TDB
Reference: JPL 31 (heliocentric ecliptic J2000)
Element | Value | Uncertainty (1-sigma) | Units |
e | .1886738754910088 | 3.4156e-08 | |
a | 2.324100122460338 | 6.1501e-09 | au |
q | 1.885603145326618 | 7.9949e-08 | au |
i | 4.258879730389669 | 3.1613e-06 | deg |
node | 52.38332264242674 | 4.9849e-05 | deg |
peri | 266.8295652583319 | 5.0488e-05 | deg |
M | 138.6934968713502 | 7.9626e-06 | deg |
tp | 2458701.920664321023 (2019-Aug-06.42066432) | 2.8428e-05 | TDB |
period | 1294.138260937514 3.54 | 5.1369e-06 1.406e-08 | d yr |
n | .2781773871202949 | 1.1042e-09 | deg/d |
Q | 2.762597099594058 | 7.3104e-09 | au |
|
| | Orbit Determination Parameters
Additional Information
|